West Chester Brandywine Airpo, PA

7:40 PM EST on November 16, 2019 (GMT -0500)
West Chester Brandywine Airpo

Weather History for KOQN - September, 2019

Change the Weather History Date:

Wednesday, September 25, 2019

  Actual Average (WUND) Record (WUND)
Temperature  
Mean Temperature 64 °F -  
Max Temperature 78 °F - - (-1)
Min Temperature 51 °F - - (-1)
Growing Degree Days 14 (Base 50)    
Moisture  
Dew Point 49 °F    
Average Humidity 61    
Maximum Humidity 94    
Minimum Humidity 30    
Precipitation  
Precipitation 0.00 in - - ()
Sea Level Pressure  
Sea Level Pressure 29.91 in    
Wind  
Wind Speed 2 mph (West)    
Max Wind Speed 9 mph    
Max Gust Speed 9 mph    
Visibility 10 miles    
Events      
Averages and records for this station are not official NWS values.
T = Trace of Precipitation, MM = Missing Value Source: NWS Daily Summary

Daily Weather History Graph

Daily Weather History Graph

Search for Another Location

Airport or City:

Astronomy

Sep. 25, 2019 Rise Set
Actual Time 6:52 AM EDT 6:54 PM EDT
Civil Twilight 6:25 AM EDT 7:21 PM EDT
Nautical Twilight 5:53 AM EDT 7:53 PM EDT
Astronomical Twilight 5:21 AM EDT 8:25 PM EDT
Moon 2:43 AM EDT (9/25) 5:25 PM EDT (9/25)
Length of Visible Light 12h 56m
Length of Day
12h 02m
Waning Crescent, 14% of the Moon is Illuminated
Sep 25
Waning Crescent
Sep 28
New
Oct 5
First Quarter
Oct 13
Full
Oct 21
Last Quarter

Hourly Weather History & Observations

Time (EDT) Temp. Dew Point Humidity Pressure Visibility Wind Dir Wind Speed Gust Speed Precip Events Conditions
12:15 AM 59.0 °F 51.8 °F 77% 29.91 in 10.0 mi Calm Calm - N/A   Clear
12:35 AM 59.0 °F 51.8 °F 77% 29.91 in 10.0 mi Calm Calm - N/A   Clear
12:55 AM 59.0 °F 51.8 °F 77% 29.91 in 10.0 mi Calm Calm - N/A   Clear
1:15 AM 59.0 °F 51.8 °F 77% 29.91 in 10.0 mi Calm Calm - N/A   Clear
1:35 AM 55.4 °F 51.8 °F 88% 29.91 in 10.0 mi Calm Calm - N/A   Clear
1:55 AM 55.4 °F 51.8 °F 88% 29.91 in 10.0 mi Calm Calm - N/A   Clear
2:15 AM 55.4 °F 51.8 °F 88% 29.91 in 10.0 mi Calm Calm - N/A   Clear
2:35 AM 55.4 °F 51.8 °F 88% 29.91 in 10.0 mi Calm Calm - N/A   Clear
2:55 AM 55.4 °F 50.0 °F 82% 29.90 in 10.0 mi Calm Calm - N/A   Clear
3:15 AM 53.6 °F 50.0 °F 88% 29.90 in 10.0 mi Calm Calm - N/A   Clear
3:35 AM 53.6 °F 50.0 °F 88% 29.90 in 10.0 mi Calm Calm - N/A   Clear
3:55 AM 53.6 °F 50.0 °F 88% 29.91 in 10.0 mi Calm Calm - N/A   Clear
4:15 AM 53.6 °F 50.0 °F 88% 29.91 in 10.0 mi Calm Calm - N/A   Clear
4:35 AM 53.6 °F 50.0 °F 88% 29.92 in 10.0 mi Calm Calm - N/A   Clear
4:55 AM 53.6 °F 50.0 °F 88% 29.93 in 10.0 mi Calm Calm - N/A   Clear
5:15 AM 51.8 °F 50.0 °F 94% 29.93 in 10.0 mi Calm Calm - N/A   Clear
5:35 AM 53.6 °F 50.0 °F 88% 29.94 in 10.0 mi Calm Calm - N/A   Clear
5:55 AM 51.8 °F 50.0 °F 94% 29.94 in 10.0 mi Calm Calm - N/A   Clear
6:15 AM 51.8 °F 50.0 °F 94% 29.94 in 10.0 mi Calm Calm - N/A   Clear
6:35 AM 51.8 °F 50.0 °F 94% 29.94 in 10.0 mi Calm Calm - N/A   Clear
6:55 AM 51.8 °F 48.2 °F 88% 29.95 in 10.0 mi Calm Calm - N/A   Clear
7:15 AM 51.8 °F 50.0 °F 94% 29.95 in 10.0 mi Calm Calm - N/A   Clear
7:35 AM 53.6 °F 50.0 °F 88% 29.95 in 10.0 mi Calm Calm - N/A   Clear
7:55 AM 55.4 °F 50.0 °F 82% 29.95 in 10.0 mi Calm Calm - N/A   Clear
8:15 AM 59.0 °F 51.8 °F 77% 29.96 in 10.0 mi Calm Calm - N/A   Clear
8:35 AM 60.8 °F 51.8 °F 72% 29.95 in 10.0 mi Calm Calm - N/A   Clear
8:55 AM 62.6 °F 51.8 °F 68% 29.96 in 10.0 mi West 3.5 mph - N/A   Clear
9:15 AM 64.4 °F 51.8 °F 64% 29.96 in 10.0 mi West 3.5 mph - N/A   Clear
9:35 AM 68.0 °F 51.8 °F 56% 29.96 in 10.0 mi WSW 4.6 mph - N/A   Clear
9:55 AM 69.8 °F 50.0 °F 49% 29.96 in 10.0 mi West 5.8 mph - N/A   Clear
10:15 AM 69.8 °F 50.0 °F 49% 29.96 in 10.0 mi West 5.8 mph - N/A   Clear
10:35 AM 71.6 °F 51.8 °F 50% 29.96 in 10.0 mi WSW 6.9 mph - N/A   Clear
10:55 AM 71.6 °F 51.8 °F 50% 29.96 in 10.0 mi WSW 8.1 mph - N/A   Clear
11:15 AM 73.4 °F 50.0 °F 44% 29.96 in 10.0 mi West 6.9 mph - N/A   Clear
11:35 AM 73.4 °F 48.2 °F 41% 29.95 in 10.0 mi West 9.2 mph - N/A   Clear
11:55 AM 73.4 °F 48.2 °F 41% 29.95 in 10.0 mi NNW 8.1 mph - N/A   Clear
12:15 PM 75.2 °F 48.2 °F 38% 29.94 in 10.0 mi WSW 6.9 mph - N/A   Scattered Clouds
12:35 PM 77.0 °F 46.4 °F 34% 29.94 in 10.0 mi WNW 5.8 mph - N/A   Scattered Clouds
12:55 PM 77.0 °F 44.6 °F 32% 29.93 in 10.0 mi NW 5.8 mph - N/A   Clear
1:15 PM 75.2 °F 46.4 °F 36% 29.91 in 10.0 mi NNW 8.1 mph - N/A   Clear
1:35 PM 77.0 °F 44.6 °F 32% 29.90 in 10.0 mi NNW 8.1 mph - N/A   Clear
1:55 PM 77.0 °F 44.6 °F 32% 29.89 in 10.0 mi WNW 8.1 mph - N/A   Clear
2:15 PM 78.8 °F 44.6 °F 30% 29.88 in 10.0 mi West 9.2 mph - N/A   Clear
2:35 PM 77.0 °F 44.6 °F 32% 29.88 in 10.0 mi NNW 3.5 mph - N/A   Clear
2:55 PM 78.8 °F 44.6 °F 30% 29.87 in 10.0 mi North 3.5 mph - N/A   Clear
3:15 PM 77.0 °F 44.6 °F 32% 29.87 in 10.0 mi West 3.5 mph - N/A   Clear
3:35 PM 78.8 °F 44.6 °F 30% 29.86 in 10.0 mi West 5.8 mph 9.2 mph N/A   Clear
3:55 PM 78.8 °F 44.6 °F 30% 29.85 in 10.0 mi West 3.5 mph - N/A   Clear
4:15 PM 78.8 °F 44.6 °F 30% 29.85 in 10.0 mi NW 6.9 mph - N/A   Clear
4:35 PM 78.8 °F 44.6 °F 30% 29.85 in 10.0 mi Calm Calm - N/A   Clear
4:55 PM 78.8 °F 44.6 °F 30% 29.85 in 10.0 mi WSW 4.6 mph - N/A   Clear
5:15 PM 78.8 °F 44.6 °F 30% 29.85 in 10.0 mi West 4.6 mph - N/A   Clear
5:35 PM 78.8 °F 44.6 °F 30% 29.86 in 10.0 mi West 3.5 mph - N/A   Clear
5:55 PM 78.8 °F 44.6 °F 30% 29.85 in 10.0 mi West 3.5 mph - N/A   Clear
6:15 PM 77.0 °F 44.6 °F 32% 29.86 in 10.0 mi West 3.5 mph - N/A   Clear
6:35 PM 75.2 °F 50.0 °F 41% 29.86 in 10.0 mi SW 4.6 mph - N/A   Clear
6:55 PM 73.4 °F 50.0 °F 44% 29.87 in 10.0 mi Calm Calm - N/A   Clear
7:15 PM 71.6 °F 50.0 °F 46% 29.87 in 10.0 mi SW 3.5 mph - N/A   Clear
7:35 PM 71.6 °F 51.8 °F 50% 29.87 in 10.0 mi Calm Calm - N/A   Clear
7:55 PM 69.8 °F 51.8 °F 53% 29.87 in 10.0 mi Calm Calm - N/A   Clear
8:15 PM 69.8 °F 51.8 °F 53% 29.87 in 10.0 mi Calm Calm - N/A   Clear
8:35 PM 68.0 °F 51.8 °F 56% 29.88 in 10.0 mi SW 3.5 mph - N/A   Clear
8:55 PM 69.8 °F 51.8 °F 53% 29.88 in 10.0 mi Calm Calm - N/A   Clear
9:15 PM 68.0 °F 51.8 °F 56% 29.88 in 10.0 mi Calm Calm - N/A   Clear
9:35 PM 62.6 °F 53.6 °F 72% 29.89 in 10.0 mi Calm Calm - N/A   Clear
9:55 PM 62.6 °F 53.6 °F 72% 29.89 in 10.0 mi Calm Calm - N/A   Clear
10:15 PM 62.6 °F 53.6 °F 72% 29.90 in 10.0 mi Calm Calm - N/A   Clear
10:35 PM 60.8 °F 51.8 °F 72% 29.90 in 10.0 mi Calm Calm - N/A   Clear
10:55 PM 60.8 °F 53.6 °F 77% 29.90 in 10.0 mi Calm Calm - N/A   Clear
11:15 PM 59.0 °F 53.6 °F 82% 29.90 in 10.0 mi Calm Calm - N/A   Clear
11:35 PM 59.0 °F 53.6 °F 82% 29.90 in 10.0 mi Calm Calm - N/A   Clear
11:55 PM 59.0 °F 51.8 °F 77% 29.89 in 10.0 mi Calm Calm - N/A   Clear